Regional Weather Roundup
Issued by NWS

Home | Current Version | Previous Version | Text Only | Print | Product List | Glossary Off
Versions: 1 2 3 4 5 6 7 8 9 10 11 12 13 14 15 16 17 18 19 20 21 22 23 24 25 26 27 28 29 30 31 32 33 34 35 36 37 38 39 40 41 42 43 44 45 46 47 48 49 50

000
ASUS45 KBOI 282210
RWRID
WEATHER ROUNDUP FOR IDAHO
NATIONAL WEATHER SERVICE BOISE ID
300 PM MST WED JAN 28 2015

NOTE: "FAIR" INDICATES FEW OR NO CLOUDS BELOW 12000 FEET
WITH NO SIGNIFICANT WEATHER AND/OR OBSTRUCTIONS TO VISIBILITY

IDZ012-014-282300-
SOUTHWEST IDAHO


CITY           SKY/WX    TMP DP  RH WIND       PRES   REMARKS
BOISE          SUNNY     44  37  76 CALM      30.33F
CALDWELL       SUNNY     46  36  66 NE3       30.35F
MOUNTAIN HOME  SUNNY     48  38  68 NW18      30.31F
$$

IDZ016-017-282300-
SOUTHCENTRAL IDAHO


CITY           SKY/WX    TMP DP  RH WIND       PRES   REMARKS
BURLEY         PTSUNNY   46  37  71 W10       30.30F
JEROME         CLOUDY    38  36  92 W10       30.32S FOG     WCI  31
TWIN FALLS     MOSUNNY   47  36  65 W17       30.31S
$$

IDZ019>023-282300-
SOUTHEAST IDAHO


CITY           SKY/WX    TMP DP  RH WIND       PRES   REMARKS
IDAHO FALLS    FOG       36  35  96 SW13      30.31S VSB 1   WCI  27
POCATELLO      CLOUDY    38  38 100 W8        30.32F WCI  32
REXBURG        FOG       34  34 100 SW7       30.31R VSB 1/4 WCI  28
$$

IDZ006-010-011-018-031-032-282300-
CENTRAL IDAHO MOUNTAINS


CITY           SKY/WX    TMP DP  RH WIND       PRES   REMARKS
MCCALL         SUNNY     43  26  51 W8        30.28S
HAILEY         FOG       34  34 100 SE7       30.29R VSB 1/4 WCI  28
STANLEY          N/A     41  29  62 CALM      30.28F
SALMON         SUNNY     37  28  70 CALM      30.31S
CHALLIS        CLOUDY    37  33  85 CALM      30.30S
$$

IDZ002-004-006-007-026-282300-
NORTHERN IDAHO


CITY           SKY/WX    TMP DP  RH WIND       PRES   REMARKS
LEWISTON       MOSUNNY   44  39  82 CALM      30.38F
LOWELL           N/A     49  39  68 CALM      30.37F
COEUR D`ALENE  CLOUDY    43  36  75 CALM      30.37S
MULLAN PASS    CLOUDY    30  28  92 CALM      30.30R
$$


USA.gov is the U.S. government's official web portal to all federal, state and local government web resources and services.